Time,TemperatureF,DewpointF,PressureIn,WindDirection,WindDirectionDegrees,WindSpeedMPH,WindSpeedGustMPH,Humidity,HourlyPrecipIn,Conditions,Clouds,dailyrainin,SoftwareType,DateUTC
2013-09-12 00:01:00,70.0,68.5,29.94,South,180,0.0,0.0,95,0.00,,,0.00,meteobridge,2013-09-12 04:01:00,
2013-09-12 00:02:00,70.0,68.5,29.91,South,180,0.0,0.0,95,0.00,,,0.00,meteobridge,2013-09-12 04:02:00,
2013-09-12 00:03:00,70.0,68.5,29.91,South,180,0.0,0.0,95,0.00,,,0.00,meteobridge,2013-09-12 04:03:00,
2013-09-12 00:08:00,70.0,68.5,29.91,South,180,0.0,0.0,95,0.00,,,0.00,meteobridge,2013-09-12 04:08:00,
2013-09-12 00:13:00,69.8,68.4,29.91,South,180,0.0,0.0,95,0.00,,,0.00,meteobridge,2013-09-12 04:13:00,
2013-09-12 00:18:00,69.8,68.5,29.91,South,180,0.0,0.0,96,0.00,,,0.00,meteobridge,2013-09-12 04:18:00,
2013-09-12 00:24:00,69.6,68.4,29.91,South,180,0.0,0.0,96,0.00,,,0.00,meteobridge,2013-09-12 04:24:00,
2013-09-12 00:29:00,69.6,68.4,29.91,South,180,0.0,0.0,96,0.00,,,0.00,meteobridge,2013-09-12 04:29:00,
2013-09-12 00:34:00,69.6,68.4,29.91,South,180,0.0,0.0,96,0.00,,,0.00,meteobridge,2013-09-12 04:34:00,
2013-09-12 00:39:00,69.4,68.2,29.91,South,180,0.0,0.0,96,0.00,,,0.00,meteobridge,2013-09-12 04:39:00,
2013-09-12 00:44:00,69.4,68.2,29.91,South,180,0.0,0.0,96,0.00,,,0.00,meteobridge,2013-09-12 04:44:00,
2013-09-12 00:49:00,69.3,68.0,29.91,South,180,0.0,0.0,96,0.00,,,0.00,meteobridge,2013-09-12 04:49:00,
2013-09-12 00:54:00,69.3,68.0,29.91,South,180,0.0,0.0,96,0.00,,,0.00,meteobridge,2013-09-12 04:54:00,
2013-09-12 00:59:00,69.3,68.0,29.91,South,180,0.0,0.0,96,0.00,,,0.00,meteobridge,2013-09-12 04:59:00,
2013-09-12 01:04:00,69.1,67.8,29.91,South,180,0.0,0.0,96,0.00,,,0.00,meteobridge,2013-09-12 05:04:00,
2013-09-12 01:09:00,69.1,67.8,29.91,South,180,0.0,0.0,96,0.00,,,0.00,meteobridge,2013-09-12 05:09:00,
2013-09-12 01:14:00,68.9,67.6,29.91,South,180,0.0,0.0,96,0.00,,,0.00,meteobridge,2013-09-12 05:14:00,
2013-09-12 01:19:00,68.9,67.6,29.88,South,180,0.0,0.0,96,0.00,,,0.00,meteobridge,2013-09-12 05:19:00,
2013-09-12 01:24:00,68.7,67.5,29.88,South,180,0.0,0.0,96,0.00,,,0.00,meteobridge,2013-09-12 05:24:00,
2013-09-12 01:29:00,68.7,67.8,29.88,South,180,0.0,0.0,97,0.00,,,0.00,meteobridge,2013-09-12 05:29:00,
2013-09-12 01:34:00,68.5,67.6,29.91,South,180,0.0,0.0,97,0.00,,,0.00,meteobridge,2013-09-12 05:34:00,
2013-09-12 01:39:00,68.5,67.6,29.91,South,180,0.0,0.0,97,0.00,,,0.00,meteobridge,2013-09-12 05:39:00,
2013-09-12 01:45:00,68.5,67.6,29.91,South,180,0.0,0.0,97,0.00,,,0.00,meteobridge,2013-09-12 05:45:00,
2013-09-12 01:50:00,68.4,67.5,29.88,South,180,0.0,0.0,97,0.00,,,0.00,meteobridge,2013-09-12 05:50:00,
2013-09-12 01:55:00,68.4,67.5,29.88,South,180,0.0,0.0,97,0.00,,,0.00,meteobridge,2013-09-12 05:55:00,
2013-09-12 02:01:00,68.4,67.5,29.88,South,180,0.0,0.0,97,0.00,,,0.00,meteobridge,2013-09-12 06:01:00,
2013-09-12 02:06:00,68.4,67.5,29.88,South,180,0.0,0.0,97,0.00,,,0.00,meteobridge,2013-09-12 06:06:00,
2013-09-12 02:11:00,68.2,67.3,29.88,South,180,0.0,0.0,97,0.00,,,0.00,meteobridge,2013-09-12 06:11:00,
2013-09-12 02:16:00,68.2,67.3,29.88,South,180,0.0,0.0,97,0.00,,,0.00,meteobridge,2013-09-12 06:16:00,
2013-09-12 02:22:00,68.2,67.3,29.88,South,180,0.0,0.0,97,0.00,,,0.00,meteobridge,2013-09-12 06:22:00,
2013-09-12 02:27:00,68.2,67.3,29.88,South,180,0.0,0.0,97,0.00,,,0.00,meteobridge,2013-09-12 06:27:00,
2013-09-12 02:32:00,68.2,67.3,29.85,South,180,0.0,0.0,97,0.00,,,0.00,meteobridge,2013-09-12 06:32:00,
2013-09-12 02:37:00,68.2,67.3,29.85,South,180,0.0,0.0,97,0.00,,,0.00,meteobridge,2013-09-12 06:37:00,
2013-09-12 02:42:00,68.2,67.3,29.85,South,180,0.0,0.0,97,0.00,,,0.00,meteobridge,2013-09-12 06:42:00,
2013-09-12 02:47:00,68.2,67.3,29.85,South,180,0.0,0.0,97,0.00,,,0.00,meteobridge,2013-09-12 06:47:00,
2013-09-12 02:52:00,68.2,67.3,29.85,South,180,0.0,0.0,97,0.00,,,0.00,meteobridge,2013-09-12 06:52:00,
2013-09-12 02:57:00,68.0,67.1,29.85,South,180,0.0,0.0,97,0.00,,,0.00,meteobridge,2013-09-12 06:57:00,
2013-09-12 03:02:00,68.0,67.1,29.83,South,180,0.0,0.0,97,0.00,,,0.00,meteobridge,2013-09-12 07:02:00,
2013-09-12 03:07:00,68.0,67.1,29.83,South,180,0.0,0.0,97,0.00,,,0.00,meteobridge,2013-09-12 07:07:00,
2013-09-12 03:13:00,68.0,67.1,29.83,South,180,0.0,0.0,97,0.00,,,0.00,meteobridge,2013-09-12 07:13:00,
2013-09-12 03:18:00,67.8,67.3,29.85,South,180,0.0,0.0,98,0.00,,,0.00,meteobridge,2013-09-12 07:18:00,
2013-09-12 03:23:00,67.8,67.3,29.85,South,180,0.0,0.0,98,0.00,,,0.00,meteobridge,2013-09-12 07:23:00,
2013-09-12 03:29:00,67.6,67.1,29.85,South,180,0.0,0.0,98,0.00,,,0.00,meteobridge,2013-09-12 07:29:00,
2013-09-12 03:34:00,67.6,67.1,29.85,South,180,0.0,0.0,98,0.00,,,0.00,meteobridge,2013-09-12 07:34:00,
2013-09-12 03:39:00,67.5,66.9,29.85,South,180,0.0,0.0,98,0.00,,,0.00,meteobridge,2013-09-12 07:39:00,
2013-09-12 03:44:00,67.5,66.9,29.85,South,180,0.0,0.0,98,0.00,,,0.00,meteobridge,2013-09-12 07:44:00,
2013-09-12 03:49:00,67.5,66.9,29.85,South,180,0.0,0.0,98,0.00,,,0.00,meteobridge,2013-09-12 07:49:00,
2013-09-12 03:54:00,67.3,66.7,29.85,South,180,0.0,0.0,98,0.00,,,0.00,meteobridge,2013-09-12 07:54:00,
2013-09-12 03:59:00,67.3,66.7,29.85,South,180,0.0,0.0,98,0.00,,,0.00,meteobridge,2013-09-12 07:59:00,
2013-09-12 04:04:00,67.1,66.6,29.85,South,180,0.0,0.0,98,0.00,,,0.00,meteobridge,2013-09-12 08:04:00,
2013-09-12 04:09:00,67.1,66.6,29.85,South,180,0.0,0.0,98,0.00,,,0.00,meteobridge,2013-09-12 08:09:00,
2013-09-12 04:14:00,67.1,66.6,29.85,South,180,0.0,0.0,98,0.00,,,0.00,meteobridge,2013-09-12 08:14:00,
2013-09-12 04:20:00,67.1,66.6,29.88,South,180,0.0,0.0,98,0.00,,,0.00,meteobridge,2013-09-12 08:20:00,
2013-09-12 04:25:00,67.1,66.6,29.88,South,180,0.0,0.0,98,0.00,,,0.00,meteobridge,2013-09-12 08:25:00,
2013-09-12 04:30:00,67.1,66.6,29.88,South,180,0.0,0.0,98,0.00,,,0.00,meteobridge,2013-09-12 08:30:00,
2013-09-12 04:35:00,67.1,66.6,29.85,South,180,0.0,0.0,98,0.00,,,0.00,meteobridge,2013-09-12 08:35:00,
2013-09-12 04:40:00,67.1,66.6,29.85,South,180,0.0,0.0,98,0.00,,,0.00,meteobridge,2013-09-12 08:40:00,
2013-09-12 04:45:00,67.1,66.6,29.85,South,180,0.0,0.0,98,0.00,,,0.00,meteobridge,2013-09-12 08:45:00,
2013-09-12 04:50:00,67.1,66.6,29.85,South,180,0.0,0.0,98,0.00,,,0.00,meteobridge,2013-09-12 08:50:00,
2013-09-12 04:55:00,67.1,66.6,29.85,South,180,0.0,0.0,98,0.00,,,0.00,meteobridge,2013-09-12 08:55:00,
2013-09-12 05:00:00,67.1,66.6,29.85,South,180,0.0,0.0,98,0.00,,,0.00,meteobridge,2013-09-12 09:00:00,
2013-09-12 05:06:00,67.1,66.6,29.85,South,180,0.0,0.0,98,0.00,,,0.00,meteobridge,2013-09-12 09:06:00,
2013-09-12 05:11:00,67.1,66.6,29.85,South,180,0.0,0.0,98,0.00,,,0.00,meteobridge,2013-09-12 09:11:00,
2013-09-12 05:16:00,67.1,66.6,29.85,South,180,0.0,0.0,98,0.00,,,0.00,meteobridge,2013-09-12 09:16:00,
2013-09-12 05:21:00,67.1,66.6,29.85,South,180,0.0,0.0,98,0.00,,,0.00,meteobridge,2013-09-12 09:21:00,
2013-09-12 05:26:00,67.1,66.6,29.85,South,180,0.0,0.0,98,0.00,,,0.00,meteobridge,2013-09-12 09:26:00,
2013-09-12 05:31:00,67.1,66.6,29.85,South,180,0.0,0.0,98,0.00,,,0.00,meteobridge,2013-09-12 09:31:00,
2013-09-12 05:36:00,67.1,66.6,29.85,South,180,0.0,0.0,98,0.00,,,0.00,meteobridge,2013-09-12 09:36:00,
2013-09-12 05:41:00,67.1,66.6,29.85,South,180,0.0,0.0,98,0.00,,,0.00,meteobridge,2013-09-12 09:41:00,
2013-09-12 05:47:00,67.1,66.6,29.85,South,180,0.0,0.0,98,0.00,,,0.00,meteobridge,2013-09-12 09:47:00,
2013-09-12 05:52:00,67.3,66.7,29.88,South,180,0.0,0.0,98,0.00,,,0.00,meteobridge,2013-09-12 09:52:00,
2013-09-12 05:57:00,67.3,66.7,29.88,South,180,0.0,0.0,98,0.00,,,0.00,meteobridge,2013-09-12 09:57:00,
2013-09-12 06:02:00,67.3,66.7,29.85,South,180,0.0,0.0,98,0.00,,,0.00,meteobridge,2013-09-12 10:02:00,
2013-09-12 06:07:00,67.3,66.7,29.85,South,180,0.0,0.0,98,0.00,,,0.00,meteobridge,2013-09-12 10:07:00,
2013-09-12 06:12:00,67.3,66.7,29.85,South,180,0.0,0.0,98,0.00,,,0.00,meteobridge,2013-09-12 10:12:00,
2013-09-12 06:17:00,67.5,66.9,29.85,South,180,0.0,0.0,98,0.00,,,0.00,meteobridge,2013-09-12 10:17:00,
2013-09-12 06:22:00,67.5,66.9,29.85,South,180,0.0,0.0,98,0.00,,,0.00,meteobridge,2013-09-12 10:22:00,
2013-09-12 06:27:00,67.5,66.9,29.85,South,180,0.0,0.0,98,0.00,,,0.00,meteobridge,2013-09-12 10:27:00,
2013-09-12 06:32:00,67.6,67.1,29.83,South,180,0.0,0.0,98,0.00,,,0.00,meteobridge,2013-09-12 10:32:00,
2013-09-12 06:37:00,67.6,67.1,29.83,South,180,0.0,0.0,98,0.00,,,0.00,meteobridge,2013-09-12 10:37:00,
2013-09-12 06:43:00,67.6,67.1,29.83,South,180,0.0,0.0,98,0.00,,,0.00,meteobridge,2013-09-12 10:43:00,
2013-09-12 06:48:00,67.6,67.1,29.85,South,180,0.0,0.0,98,0.00,,,0.00,meteobridge,2013-09-12 10:48:00,
2013-09-12 06:54:00,67.6,67.1,29.85,South,180,0.0,-999.0,98,0.00,,,0.00,meteobridge,2013-09-12 10:54:00,
2013-09-12 06:59:00,67.5,66.9,29.85,South,180,0.0,0.0,98,0.00,,,0.00,meteobridge,2013-09-12 10:59:00,
2013-09-12 07:05:00,67.5,66.9,29.85,South,180,0.0,0.0,98,0.00,,,0.00,meteobridge,2013-09-12 11:05:00,
2013-09-12 07:10:00,67.5,66.9,29.85,South,180,0.0,0.0,98,0.00,,,0.00,meteobridge,2013-09-12 11:10:00,
2013-09-12 07:15:00,67.5,66.9,29.85,South,180,0.0,0.0,98,0.00,,,0.00,meteobridge,2013-09-12 11:15:00,
2013-09-12 07:20:00,67.5,66.9,29.85,South,180,0.0,0.0,98,0.00,,,0.00,meteobridge,2013-09-12 11:20:00,
2013-09-12 07:25:00,67.5,66.9,29.85,South,180,0.0,0.0,98,0.00,,,0.00,meteobridge,2013-09-12 11:25:00,
2013-09-12 07:31:00,67.6,67.1,29.85,South,180,0.0,0.0,98,0.00,,,0.00,meteobridge,2013-09-12 11:31:00,
2013-09-12 07:36:00,67.6,67.1,29.85,South,180,0.0,0.0,98,0.00,,,0.00,meteobridge,2013-09-12 11:36:00,
2013-09-12 07:41:00,67.8,67.3,29.85,South,180,0.0,0.0,98,0.00,,,0.00,meteobridge,2013-09-12 11:41:00,
2013-09-12 07:46:00,67.8,67.3,29.85,South,180,0.0,0.0,98,0.00,,,0.00,meteobridge,2013-09-12 11:46:00,
2013-09-12 07:51:00,68.0,67.5,29.85,South,180,0.0,0.0,98,0.00,,,0.00,meteobridge,2013-09-12 11:51:00,
2013-09-12 07:56:00,68.2,67.6,29.85,South,180,0.0,0.0,98,0.00,,,0.00,meteobridge,2013-09-12 11:56:00,
2013-09-12 08:01:00,68.4,67.8,29.85,South,180,0.0,0.0,98,0.00,,,0.00,meteobridge,2013-09-12 12:01:00,
2013-09-12 08:07:00,68.7,68.2,29.85,South,180,0.0,0.0,98,0.00,,,0.00,meteobridge,2013-09-12 12:07:00,
2013-09-12 08:12:00,69.1,68.5,29.85,South,180,0.9,0.9,98,0.00,,,0.00,meteobridge,2013-09-12 12:12:00,
2013-09-12 08:17:00,69.3,68.7,29.85,South,180,0.0,0.0,98,0.00,,,0.00,meteobridge,2013-09-12 12:17:00,
2013-09-12 08:22:00,69.6,69.1,29.83,South,180,0.0,0.0,98,0.00,,,0.00,meteobridge,2013-09-12 12:22:00,
2013-09-12 08:27:00,70.0,69.4,29.83,South,180,0.0,1.3,98,0.00,,,0.00,meteobridge,2013-09-12 12:27:00,
2013-09-12 08:32:00,70.3,69.8,29.83,South,180,0.0,0.0,98,0.00,,,0.00,meteobridge,2013-09-12 12:32:00,
2013-09-12 08:37:00,70.7,70.2,29.83,South,180,0.0,0.0,98,0.00,,,0.00,meteobridge,2013-09-12 12:37:00,
2013-09-12 08:42:00,71.1,70.5,29.83,South,180,0.0,0.0,98,0.00,,,0.00,meteobridge,2013-09-12 12:42:00,
2013-09-12 08:47:00,71.6,71.1,29.83,South,180,0.0,0.0,98,0.00,,,0.00,meteobridge,2013-09-12 12:47:00,
2013-09-12 08:52:00,72.0,71.4,29.83,South,180,0.0,0.0,98,0.00,,,0.00,meteobridge,2013-09-12 12:52:00,
2013-09-12 08:57:00,72.3,71.8,29.83,South,180,0.0,0.0,98,0.00,,,0.00,meteobridge,2013-09-12 12:57:00,
2013-09-12 09:03:00,72.7,72.1,29.83,South,180,0.0,0.0,98,0.00,,,0.00,meteobridge,2013-09-12 13:03:00,
2013-09-12 09:08:00,73.4,72.5,29.83,South,180,0.0,0.0,97,0.00,,,0.00,meteobridge,2013-09-12 13:08:00,
2013-09-12 09:13:00,73.8,72.9,29.83,South,180,0.0,0.0,97,0.00,,,0.00,meteobridge,2013-09-12 13:13:00,
2013-09-12 09:18:00,74.1,72.9,29.83,SSW,202,0.0,2.2,96,0.00,,,0.00,meteobridge,2013-09-12 13:18:00,
2013-09-12 09:23:00,74.7,73.4,29.83,SSW,202,0.0,0.0,96,0.00,,,0.00,meteobridge,2013-09-12 13:23:00,
2013-09-12 09:28:00,-999.0,-99.9,29.83,SSW,202,0.9,1.6,-999,0.00,,,0.00,meteobridge,2013-09-12 13:28:00,
2013-09-12 09:33:00,75.6,73.8,29.83,SSW,202,0.0,0.0,94,0.00,,,0.00,meteobridge,2013-09-12 13:33:00,
2013-09-12 09:38:00,76.1,73.6,29.83,SSW,202,0.0,0.9,92,0.00,,,0.00,meteobridge,2013-09-12 13:38:00,
2013-09-12 09:43:00,76.5,73.6,29.83,SSW,202,1.3,1.3,91,0.00,,,0.00,meteobridge,2013-09-12 13:43:00,
2013-09-12 09:49:00,76.8,73.6,29.83,SSW,202,0.0,0.0,90,0.00,,,0.00,meteobridge,2013-09-12 13:49:00,
2013-09-12 09:54:00,77.0,73.2,29.83,West,270,0.0,2.0,88,0.00,,,0.00,meteobridge,2013-09-12 13:54:00,
2013-09-12 09:59:00,77.2,73.4,29.83,West,270,0.0,2.2,88,0.00,,,0.00,meteobridge,2013-09-12 13:59:00,
2013-09-12 10:04:00,77.5,73.8,29.83,West,270,0.0,0.0,88,0.00,,,0.00,meteobridge,2013-09-12 14:04:00,
2013-09-12 10:10:00,77.9,74.1,29.83,West,270,0.0,1.1,88,0.00,,,0.00,meteobridge,2013-09-12 14:10:00,
2013-09-12 10:15:00,78.3,73.8,29.83,South,180,0.0,2.5,86,0.00,,,0.00,meteobridge,2013-09-12 14:15:00,
2013-09-12 10:20:00,78.4,73.9,29.83,South,180,0.0,1.3,86,0.00,,,0.00,meteobridge,2013-09-12 14:20:00,
2013-09-12 10:25:00,78.8,73.6,29.83,South,180,1.1,1.6,84,0.00,,,0.00,meteobridge,2013-09-12 14:25:00,
2013-09-12 10:30:00,79.2,73.9,29.83,South,180,1.1,1.3,84,0.00,,,0.00,meteobridge,2013-09-12 14:30:00,
2013-09-12 10:35:00,79.7,74.5,29.83,South,180,0.0,1.6,84,0.00,,,0.00,meteobridge,2013-09-12 14:35:00,
2013-09-12 10:40:00,80.4,74.1,29.83,NW,315,0.9,1.1,81,0.00,,,0.00,meteobridge,2013-09-12 14:40:00,
2013-09-12 10:45:00,81.1,73.6,29.83,SSW,202,2.0,2.0,78,0.00,,,0.00,meteobridge,2013-09-12 14:45:00,
2013-09-12 10:50:00,81.7,73.0,29.83,WSW,248,0.0,2.0,75,0.00,,,0.00,meteobridge,2013-09-12 14:50:00,
2013-09-12 10:55:00,82.2,73.6,29.83,SSE,158,0.9,1.6,75,0.00,,,0.00,meteobridge,2013-09-12 14:55:00,
2013-09-12 11:00:00,82.9,73.8,29.83,SSW,202,2.5,2.5,74,0.00,,,0.00,meteobridge,2013-09-12 15:00:00,
2013-09-12 11:05:00,83.3,72.9,29.80,SE,135,3.4,3.4,71,0.00,,,0.00,meteobridge,2013-09-12 15:05:00,
2013-09-12 11:10:00,84.2,72.5,29.80,WSW,248,0.0,2.0,68,0.00,,,0.00,meteobridge,2013-09-12 15:10:00,
2013-09-12 11:15:00,85.1,72.5,29.80,NE,45,0.0,2.0,66,0.00,,,0.00,meteobridge,2013-09-12 15:15:00,
2013-09-12 11:20:00,86.2,73.9,29.80,West,270,2.2,2.2,67,0.00,,,0.00,meteobridge,2013-09-12 15:20:00,
2013-09-12 11:25:00,86.9,73.8,29.80,NNW,338,1.1,1.3,65,0.00,,,0.00,meteobridge,2013-09-12 15:25:00,
2013-09-12 11:31:00,87.4,74.3,29.80,South,180,1.6,2.2,65,0.00,,,0.00,meteobridge,2013-09-12 15:31:00,
2013-09-12 11:36:00,88.2,72.5,29.77,NW,315,1.3,2.7,60,0.00,,,0.00,meteobridge,2013-09-12 15:36:00,
2013-09-12 11:41:00,88.7,72.0,29.77,WNW,292,1.1,3.4,58,0.00,,,0.00,meteobridge,2013-09-12 15:41:00,
2013-09-12 11:46:00,89.6,71.8,29.77,NNE,22,0.0,2.0,56,0.00,,,0.00,meteobridge,2013-09-12 15:46:00,
2013-09-12 11:51:00,90.5,72.1,29.80,East,90,2.2,2.5,55,0.00,,,0.00,meteobridge,2013-09-12 15:51:00,
2013-09-12 11:56:00,90.9,72.0,29.80,SSE,158,1.1,2.5,54,0.00,,,0.00,meteobridge,2013-09-12 15:56:00,
2013-09-12 12:01:00,91.2,72.9,29.80,SSE,158,0.9,2.2,55,0.00,,,0.00,meteobridge,2013-09-12 16:01:00,
2013-09-12 12:06:00,91.4,71.8,29.80,SSW,202,1.6,1.6,53,0.00,,,0.00,meteobridge,2013-09-12 16:06:00,
2013-09-12 12:12:00,91.8,72.1,29.80,East,90,0.9,2.5,53,0.00,,,0.00,meteobridge,2013-09-12 16:12:00,
2013-09-12 12:17:00,92.5,72.9,29.80,SSW,202,0.9,2.5,53,0.00,,,0.00,meteobridge,2013-09-12 16:17:00,
2013-09-12 12:22:00,92.5,71.8,29.80,SE,135,0.0,2.9,51,0.00,,,0.00,meteobridge,2013-09-12 16:22:00,
2013-09-12 12:27:00,92.3,73.2,29.80,SW,225,3.4,3.4,54,0.00,,,0.00,meteobridge,2013-09-12 16:27:00,
2013-09-12 12:32:00,92.1,73.0,29.80,SW,225,2.5,2.5,54,0.00,,,0.00,meteobridge,2013-09-12 16:32:00,
2013-09-12 12:37:00,93.2,72.9,29.80,SSE,158,1.6,2.9,52,0.00,,,0.00,meteobridge,2013-09-12 16:37:00,
2013-09-12 12:42:00,93.7,71.6,29.80,SE,135,2.5,2.9,49,0.00,,,0.00,meteobridge,2013-09-12 16:42:00,
2013-09-12 12:47:00,93.9,71.2,29.80,South,180,2.7,2.9,48,0.00,,,0.00,meteobridge,2013-09-12 16:47:00,
2013-09-12 12:52:00,94.5,72.3,29.80,West,270,1.1,2.5,49,0.00,,,0.00,meteobridge,2013-09-12 16:52:00,
2013-09-12 12:58:00,95.4,73.2,29.80,West,270,0.9,1.1,49,0.00,,,0.00,meteobridge,2013-09-12 16:58:00,
2013-09-12 13:03:00,95.9,73.0,29.77,WNW,292,2.9,2.9,48,0.00,,,0.00,meteobridge,2013-09-12 17:03:00,
2013-09-12 13:08:00,96.1,71.2,29.77,SW,225,2.2,3.1,45,0.00,,,0.00,meteobridge,2013-09-12 17:08:00,
2013-09-12 13:13:00,96.6,73.0,29.77,WSW,248,1.1,1.6,47,0.00,,,0.00,meteobridge,2013-09-12 17:13:00,
2013-09-12 13:18:00,97.2,72.3,29.77,NW,315,2.0,2.2,45,0.00,,,0.00,meteobridge,2013-09-12 17:18:00,
2013-09-12 13:23:00,97.0,72.7,29.77,WSW,248,1.6,2.0,46,0.00,,,0.00,meteobridge,2013-09-12 17:23:00,
2013-09-12 13:28:00,97.2,71.6,29.77,SW,225,1.1,3.6,44,0.00,,,0.00,meteobridge,2013-09-12 17:28:00,
2013-09-12 13:34:00,96.8,70.5,29.77,SSW,202,1.1,-999.0,43,0.00,,,0.00,meteobridge,2013-09-12 17:34:00,
2013-09-12 13:39:00,97.7,72.7,29.74,SSE,158,2.0,2.5,45,0.00,,,0.00,meteobridge,2013-09-12 17:39:00,
2013-09-12 13:45:00,98.1,73.0,29.74,SSW,202,2.9,2.9,45,0.00,,,0.00,meteobridge,2013-09-12 17:45:00,
2013-09-12 13:50:00,97.9,70.9,29.74,SW,225,0.0,3.1,42,0.00,,,0.00,meteobridge,2013-09-12 17:50:00,
2013-09-12 13:55:00,97.5,72.0,29.74,South,180,2.0,2.5,44,0.00,,,0.00,meteobridge,2013-09-12 17:55:00,
2013-09-12 14:00:00,97.9,71.6,29.74,North,0,2.0,3.6,43,0.00,,,0.00,meteobridge,2013-09-12 18:00:00,
2013-09-12 14:05:00,98.4,71.4,29.71,SW,225,1.3,2.5,42,0.00,,,0.00,meteobridge,2013-09-12 18:05:00,
2013-09-12 14:10:00,98.4,70.7,29.71,South,180,4.3,4.3,41,0.00,,,0.00,meteobridge,2013-09-12 18:10:00,
2013-09-12 14:16:00,99.0,71.8,29.71,SSE,158,1.3,3.4,42,0.00,,,0.00,meteobridge,2013-09-12 18:16:00,
2013-09-12 14:21:00,99.0,71.1,29.74,West,270,2.9,2.9,41,0.00,,,0.00,meteobridge,2013-09-12 18:21:00,
2013-09-12 14:26:00,98.2,69.8,29.74,SSW,202,2.7,3.1,40,0.00,,,0.00,meteobridge,2013-09-12 18:26:00,
2013-09-12 14:31:00,98.6,70.0,29.74,WSW,248,2.9,3.1,40,0.00,,,0.00,meteobridge,2013-09-12 18:31:00,
2013-09-12 14:36:00,98.4,70.7,29.74,West,270,3.1,3.1,41,0.00,,,0.00,meteobridge,2013-09-12 18:36:00,
2013-09-12 14:41:00,99.0,69.6,29.74,SSE,158,2.0,2.9,39,0.00,,,0.00,meteobridge,2013-09-12 18:41:00,
2013-09-12 14:46:00,99.3,70.7,29.74,SW,225,2.5,2.5,40,0.00,,,0.00,meteobridge,2013-09-12 18:46:00,
2013-09-12 14:51:00,99.3,70.7,29.71,East,90,1.3,2.5,40,0.00,,,0.00,meteobridge,2013-09-12 18:51:00,
2013-09-12 14:56:00,99.7,71.1,29.71,NW,315,1.1,2.2,40,0.00,,,0.00,meteobridge,2013-09-12 18:56:00,
2013-09-12 15:01:00,99.7,71.1,29.71,SE,135,2.5,2.7,40,0.00,,,0.00,meteobridge,2013-09-12 19:01:00,
2013-09-12 15:06:00,99.3,71.4,29.71,SW,225,1.6,2.5,41,0.00,,,0.00,meteobridge,2013-09-12 19:06:00,
2013-09-12 15:11:00,99.5,70.9,29.71,NW,315,1.1,2.0,40,0.00,,,0.00,meteobridge,2013-09-12 19:11:00,
2013-09-12 15:16:00,99.3,71.4,29.68,SSW,202,1.3,3.6,41,0.00,,,0.00,meteobridge,2013-09-12 19:16:00,
2013-09-12 15:21:00,99.7,71.8,29.68,West,270,1.3,2.0,41,0.00,,,0.00,meteobridge,2013-09-12 19:21:00,
2013-09-12 15:27:00,99.7,71.1,29.68,West,270,0.9,2.0,40,0.00,,,0.00,meteobridge,2013-09-12 19:27:00,
2013-09-12 15:32:00,99.5,70.9,29.65,WNW,292,1.1,2.2,40,0.00,,,0.00,meteobridge,2013-09-12 19:32:00,
2013-09-12 15:37:00,99.3,70.7,29.65,WNW,292,2.0,2.7,40,0.00,,,0.00,meteobridge,2013-09-12 19:37:00,
2013-09-12 15:42:00,99.0,70.3,29.65,WNW,292,1.1,2.0,40,0.00,,,0.00,meteobridge,2013-09-12 19:42:00,
2013-09-12 15:48:00,98.4,70.0,29.68,WNW,292,1.3,-999.0,40,0.00,,,0.00,meteobridge,2013-09-12 19:48:00,
2013-09-12 15:53:00,96.8,68.5,29.68,West,270,1.1,3.8,40,0.00,,,0.00,meteobridge,2013-09-12 19:53:00,
2013-09-12 15:59:00,97.0,69.4,29.68,SSE,158,2.0,2.5,41,0.00,,,0.00,meteobridge,2013-09-12 19:59:00,
2013-09-12 16:03:00,96.4,68.9,29.68,SSE,158,0.9,2.7,41,0.00,,,0.00,meteobridge,2013-09-12 20:03:00,
2013-09-12 16:09:00,96.1,68.5,29.68,North,0,2.2,3.4,41,0.00,,,0.00,meteobridge,2013-09-12 20:09:00,
2013-09-12 16:14:00,96.3,68.7,29.68,SW,225,2.9,3.8,41,0.00,,,0.00,meteobridge,2013-09-12 20:14:00,
2013-09-12 16:19:00,95.2,68.4,29.68,SW,225,1.1,2.0,42,0.00,,,0.00,meteobridge,2013-09-12 20:19:00,
2013-09-12 16:24:00,95.2,68.4,29.68,South,180,1.6,4.0,42,0.00,,,0.00,meteobridge,2013-09-12 20:24:00,
2013-09-12 16:29:00,95.0,68.4,29.68,NNW,338,2.5,4.3,42,0.00,,,0.00,meteobridge,2013-09-12 20:29:00,
2013-09-12 16:34:00,94.8,68.9,29.65,WNW,292,2.0,2.7,43,0.00,,,0.00,meteobridge,2013-09-12 20:34:00,
2013-09-12 16:39:00,93.7,68.5,29.65,South,180,0.0,1.3,44,0.00,,,0.00,meteobridge,2013-09-12 20:39:00,
2013-09-12 16:44:00,92.3,67.8,29.65,SW,225,3.6,3.6,45,0.00,,,0.00,meteobridge,2013-09-12 20:44:00,
2013-09-12 16:49:00,92.3,68.5,29.65,SSW,202,0.0,2.0,46,0.00,,,0.00,meteobridge,2013-09-12 20:49:00,
2013-09-12 16:54:00,91.4,68.4,29.65,SSE,158,0.0,1.1,47,0.00,,,0.00,meteobridge,2013-09-12 20:54:00,
2013-09-12 16:59:00,90.7,68.9,29.65,East,90,2.0,2.9,49,0.00,,,0.00,meteobridge,2013-09-12 20:59:00,
2013-09-12 17:04:00,90.3,69.8,29.62,WNW,292,0.0,3.4,51,0.00,,,0.00,meteobridge,2013-09-12 21:04:00,
2013-09-12 17:09:00,90.0,68.9,29.62,SW,225,1.6,2.5,50,0.00,,,0.00,meteobridge,2013-09-12 21:09:00,
2013-09-12 17:15:00,89.6,69.1,29.62,West,270,2.0,2.7,51,0.00,,,0.00,meteobridge,2013-09-12 21:15:00,
2013-09-12 17:20:00,89.2,69.8,29.62,WSW,248,0.0,2.2,53,0.00,,,0.00,meteobridge,2013-09-12 21:20:00,
2013-09-12 17:25:00,88.7,71.1,29.62,WSW,248,2.9,2.9,56,0.00,,,0.00,meteobridge,2013-09-12 21:25:00,
2013-09-12 17:31:00,88.5,69.8,29.62,East,90,0.0,2.0,54,0.00,,,0.00,meteobridge,2013-09-12 21:31:00,
2013-09-12 17:36:00,88.2,70.5,29.62,South,180,0.0,0.0,56,0.00,,,0.00,meteobridge,2013-09-12 21:36:00,
2013-09-12 17:41:00,88.2,70.5,29.62,NNW,338,0.0,0.0,56,0.00,,,0.00,meteobridge,2013-09-12 21:41:00,
2013-09-12 17:46:00,87.8,70.7,29.62,NW,315,0.0,0.0,57,0.00,,,0.00,meteobridge,2013-09-12 21:46:00,
2013-09-12 17:51:00,87.4,70.9,29.62,NW,315,0.0,2.0,58,0.00,,,0.00,meteobridge,2013-09-12 21:51:00,
2013-09-12 17:56:00,87.1,71.4,29.62,NW,315,0.0,0.0,60,0.00,,,0.00,meteobridge,2013-09-12 21:56:00,
2013-09-12 18:01:00,86.9,71.2,29.59,SSE,158,0.0,0.0,60,0.00,,,0.00,meteobridge,2013-09-12 22:01:00,
2013-09-12 18:06:00,86.4,71.8,29.59,SSE,158,0.0,0.0,62,0.00,,,0.00,meteobridge,2013-09-12 22:06:00,
2013-09-12 18:12:00,86.2,71.1,29.59,SSE,158,0.0,0.0,61,0.00,,,0.00,meteobridge,2013-09-12 22:12:00,
2013-09-12 18:17:00,85.8,70.9,29.62,SSW,202,2.2,2.2,61,0.00,,,0.00,meteobridge,2013-09-12 22:17:00,
2013-09-12 18:22:00,85.5,70.9,29.62,SSW,202,0.0,0.0,62,0.00,,,0.00,meteobridge,2013-09-12 22:22:00,
2013-09-12 18:27:00,85.1,70.5,29.62,SSW,202,0.0,0.0,62,0.00,,,0.00,meteobridge,2013-09-12 22:27:00,
2013-09-12 18:32:00,84.6,70.5,29.62,SSW,202,0.0,0.0,63,0.00,,,0.00,meteobridge,2013-09-12 22:32:00,
2013-09-12 18:37:00,84.0,71.1,29.62,SSW,202,0.0,0.0,65,0.00,,,0.00,meteobridge,2013-09-12 22:37:00,
2013-09-12 18:42:00,83.7,71.1,29.62,SSW,202,0.0,0.0,66,0.00,,,0.00,meteobridge,2013-09-12 22:42:00,
2013-09-12 18:48:00,83.1,71.4,29.59,SSW,202,0.0,0.0,68,0.00,,,0.00,meteobridge,2013-09-12 22:48:00,
2013-09-12 18:54:00,82.6,70.9,29.59,SSW,202,0.0,0.0,68,0.00,,,0.00,meteobridge,2013-09-12 22:54:00,
2013-09-12 18:59:00,82.2,71.1,29.59,SSW,202,0.0,0.0,69,0.00,,,0.00,meteobridge,2013-09-12 22:59:00,
2013-09-12 19:05:00,81.9,70.7,29.62,SSW,202,0.0,0.0,69,0.00,,,0.00,meteobridge,2013-09-12 23:05:00,
2013-09-12 19:10:00,81.7,70.5,29.62,SSW,202,0.0,0.0,69,0.00,,,0.00,meteobridge,2013-09-12 23:10:00,
2013-09-12 19:15:00,81.3,70.5,29.62,SSW,202,0.0,0.0,70,0.00,,,0.00,meteobridge,2013-09-12 23:15:00,
2013-09-12 19:20:00,81.1,71.2,29.59,SSW,202,0.0,0.0,72,0.00,,,0.00,meteobridge,2013-09-12 23:20:00,
2013-09-12 19:25:00,80.8,71.8,29.59,SSW,202,0.0,0.0,74,0.00,,,0.00,meteobridge,2013-09-12 23:25:00,
2013-09-12 19:30:00,80.4,71.4,29.59,SSW,202,1.3,1.3,74,0.00,,,0.00,meteobridge,2013-09-12 23:30:00,
2013-09-12 19:35:00,80.4,71.8,29.65,SSW,202,1.6,2.5,75,0.00,,,0.00,meteobridge,2013-09-12 23:35:00,
2013-09-12 19:40:00,80.8,71.8,29.65,NW,315,2.0,4.9,74,0.00,,,0.00,meteobridge,2013-09-12 23:40:00,
2013-09-12 19:46:00,80.6,71.1,29.65,NW,315,2.9,2.9,73,0.00,,,0.00,meteobridge,2013-09-12 23:46:00,
2013-09-12 19:51:00,79.9,72.3,29.68,West,270,2.9,2.9,78,0.00,,,0.00,meteobridge,2013-09-12 23:51:00,
2013-09-12 19:56:00,79.2,72.5,29.68,West,270,3.8,3.8,80,0.00,,,0.00,meteobridge,2013-09-12 23:56:00,
2013-09-12 20:01:00,78.3,72.0,29.68,NW,315,2.0,3.6,81,0.00,,,0.00,meteobridge,2013-09-13 00:01:00,
2013-09-12 20:06:00,77.2,71.2,29.68,SW,225,2.5,3.1,82,0.00,,,0.00,meteobridge,2013-09-13 00:06:00,
2013-09-12 20:11:00,75.6,71.1,29.68,NW,315,1.3,2.5,86,0.00,,,0.00,meteobridge,2013-09-13 00:11:00,
2013-09-12 20:16:00,74.5,71.1,29.68,SSW,202,0.0,1.3,89,0.05,,,0.05,meteobridge,2013-09-13 00:16:00,
2013-09-12 20:22:00,73.9,70.5,29.68,SSW,202,0.0,0.0,89,0.05,,,0.05,meteobridge,2013-09-13 00:22:00,
2013-09-12 20:27:00,73.4,70.3,29.68,SSW,202,1.6,1.6,90,0.08,,,0.08,meteobridge,2013-09-13 00:27:00,
2013-09-12 20:32:00,73.2,70.2,29.68,SSW,202,0.0,0.9,90,0.08,,,0.08,meteobridge,2013-09-13 00:32:00,
2013-09-12 20:38:00,72.7,70.0,29.68,SSW,202,0.0,0.0,91,0.08,,,0.08,meteobridge,2013-09-13 00:38:00,
2013-09-12 20:43:00,72.3,69.6,29.68,SSW,202,0.0,0.0,91,0.08,,,0.08,meteobridge,2013-09-13 00:43:00,
2013-09-12 20:48:00,72.1,69.6,29.65,SSW,202,0.0,0.0,92,0.08,,,0.08,meteobridge,2013-09-13 00:48:00,
2013-09-12 20:53:00,72.0,69.4,29.65,SSW,202,0.0,0.0,92,0.08,,,0.08,meteobridge,2013-09-13 00:53:00,
2013-09-12 20:58:00,72.0,70.2,29.65,SSW,202,0.0,0.0,94,0.08,,,0.08,meteobridge,2013-09-13 00:58:00,
2013-09-12 21:03:00,72.0,69.8,29.65,SSW,202,0.0,0.0,93,0.08,,,0.08,meteobridge,2013-09-13 01:03:00,
2013-09-12 21:09:00,72.0,70.2,29.65,SSW,202,0.0,0.0,94,0.08,,,0.08,meteobridge,2013-09-13 01:09:00,
2013-09-12 21:14:00,71.8,70.0,29.65,SSW,202,0.0,0.0,94,0.03,,,0.08,meteobridge,2013-09-13 01:14:00,
2013-09-12 21:19:00,71.8,70.0,29.65,SSW,202,0.0,0.0,94,0.03,,,0.08,meteobridge,2013-09-13 01:19:00,
2013-09-12 21:24:00,71.6,69.8,29.65,SSW,202,0.0,0.0,94,0.03,,,0.08,meteobridge,2013-09-13 01:24:00,
2013-09-12 21:29:00,71.6,70.2,29.65,SSW,202,0.0,0.0,95,0.00,,,0.08,meteobridge,2013-09-13 01:29:00,
2013-09-12 21:34:00,71.6,70.2,29.65,SSW,202,0.0,0.0,95,0.00,,,0.08,meteobridge,2013-09-13 01:34:00,
2013-09-12 21:39:00,71.4,70.0,29.65,SSW,202,0.0,0.0,95,0.00,,,0.08,meteobridge,2013-09-13 01:39:00,
2013-09-12 21:44:00,71.4,70.2,29.65,SSW,202,0.0,0.0,96,0.00,,,0.08,meteobridge,2013-09-13 01:44:00,
2013-09-12 21:50:00,71.4,70.2,29.65,SSW,202,0.0,0.0,96,0.00,,,0.08,meteobridge,2013-09-13 01:50:00,
2013-09-12 21:55:00,71.4,70.2,29.65,SSW,202,0.0,0.0,96,0.00,,,0.08,meteobridge,2013-09-13 01:55:00,
2013-09-12 22:00:00,71.4,70.2,29.65,SSW,202,0.0,0.0,96,0.00,,,0.08,meteobridge,2013-09-13 02:00:00,
2013-09-12 22:05:00,71.4,70.2,29.62,SSW,202,0.0,0.0,96,0.00,,,0.08,meteobridge,2013-09-13 02:05:00,
2013-09-12 22:11:00,71.4,70.2,29.62,SSW,202,0.0,0.0,96,0.00,,,0.08,meteobridge,2013-09-13 02:11:00,
2013-09-12 22:16:00,71.4,70.2,29.62,SSW,202,0.0,0.0,96,0.00,,,0.08,meteobridge,2013-09-13 02:16:00,
2013-09-12 22:21:00,71.2,70.0,29.62,SSW,202,0.0,0.0,96,0.00,,,0.08,meteobridge,2013-09-13 02:21:00,
2013-09-12 22:26:00,71.2,70.0,29.62,SSW,202,0.0,0.0,96,0.00,,,0.08,meteobridge,2013-09-13 02:26:00,
2013-09-12 22:31:00,71.2,70.3,29.62,SSW,202,0.0,0.0,97,0.00,,,0.08,meteobridge,2013-09-13 02:31:00,
2013-09-12 22:36:00,71.2,70.3,29.62,SSW,202,0.0,0.0,97,0.00,,,0.08,meteobridge,2013-09-13 02:36:00,
2013-09-12 22:41:00,71.2,70.3,29.62,SSW,202,0.0,0.0,97,0.00,,,0.08,meteobridge,2013-09-13 02:41:00,
2013-09-12 22:46:00,71.2,70.3,29.62,SSW,202,0.0,0.0,97,0.00,,,0.08,meteobridge,2013-09-13 02:46:00,
2013-09-12 22:51:00,71.2,70.3,29.62,SSW,202,0.0,0.0,97,0.00,,,0.08,meteobridge,2013-09-13 02:51:00,
2013-09-12 22:57:00,71.2,70.3,29.62,SSW,202,0.0,0.0,97,0.00,,,0.08,meteobridge,2013-09-13 02:57:00,
2013-09-12 23:02:00,71.1,70.2,29.62,SSW,202,0.0,0.0,97,0.00,,,0.08,meteobridge,2013-09-13 03:02:00,
2013-09-12 23:07:00,71.1,70.2,29.62,SSW,202,0.0,0.0,97,0.00,,,0.08,meteobridge,2013-09-13 03:07:00,
2013-09-12 23:13:00,71.1,70.2,29.62,SSW,202,0.0,0.0,97,0.00,,,0.08,meteobridge,2013-09-13 03:13:00,
2013-09-12 23:18:00,71.1,70.2,29.62,SSW,202,0.0,0.0,97,0.00,,,0.08,meteobridge,2013-09-13 03:18:00,
2013-09-12 23:23:00,71.1,70.5,29.62,SSW,202,0.0,0.0,98,0.00,,,0.08,meteobridge,2013-09-13 03:23:00,
2013-09-12 23:28:00,71.1,70.2,29.62,SSW,202,0.0,0.0,97,0.00,,,0.08,meteobridge,2013-09-13 03:28:00,
2013-09-12 23:33:00,70.9,70.0,29.59,SSW,202,0.0,0.0,97,0.00,,,0.08,meteobridge,2013-09-13 03:33:00,
2013-09-12 23:39:00,70.9,70.3,29.59,SSW,202,0.0,0.0,98,0.00,,,0.08,meteobridge,2013-09-13 03:39:00,
2013-09-12 23:44:00,70.9,70.3,29.59,SSW,202,0.0,0.0,98,0.00,,,0.08,meteobridge,2013-09-13 03:44:00,
2013-09-12 23:49:00,70.9,70.0,29.62,SSW,202,0.0,0.0,97,0.00,,,0.08,meteobridge,2013-09-13 03:49:00,
2013-09-12 23:55:00,70.9,70.3,29.62,SSW,202,0.0,0.0,98,0.00,,,0.08,meteobridge,2013-09-13 03:55:00,